Regional Weather Roundup
Issued by NWS

Home | Current Version | Previous Version | Text Only | Print | Product List | Glossary On
Versions: 1 2 3 4 5 6 7 8 9 10 11 12 13 14 15 16 17 18 19 20 21 22 23 24 25 26 27 28 29 30 31 32 33 34 35 36 37 38 39 40 41 42 43 44 45 46 47 48 49 50
091
ASUS43 KLMK 241910
RWRKY
KENTUCKY REGIONAL WEATHER ROUNDUP
NATIONAL WEATHER SERVICE LOUISVILLE KY
200 PM EST TUE JAN 24 2017

NOTE "FAIR" INDICATES FEW OR NO CLOUDS BELOW 12,000 FEET
WITH NO SIGNIFICANT WEATHER AND/OR OBSTRUCTIONS TO VISIBILITY.

KYZ001>023-026-027-061>063-070>075-242000-
WESTERN AND SOUTH CENTRAL KENTUCKY

CITY           SKY/WX    TMP DP  RH WIND       PRES   REMARKS
PADUCAH        SUNNY     51  36  56 S6        29.87F
HENDERSON      CLOUDY    45  34  65 S8        29.89S
OWENSBORO      CLOUDY    42  35  76 S3        29.90F
HOPKINSVILLE   SUNNY     50  34  54 SE6       29.88F
BOWLING GREEN  PTSUNNY   46  35  65 CALM      29.89F
GLASGOW        CLOUDY    44  35  70 CALM      29.88F
$$

KYZ024-025-028>034-038-045-046-053-242000-
NORTH CENTRAL KENTUCKY

CITY           SKY/WX    TMP DP  RH WIND       PRES   REMARKS
LOUISVILLE/SDF PTSUNNY   47  33  58 NW5       29.86F
LOUISVILLE/LOU PTSUNNY   46  33  60 W5        29.87F
FORT KNOX      SUNNY     44  34  66 VRB3      29.85S
$$

KYZ035>037-039>044-047>052-055>060-089>105-242000-
NORTHEAST KENTUCKY

CITY           SKY/WX    TMP DP  RH WIND       PRES   REMARKS
LEXINGTON      CLOUDY    44  36  73 W7        29.85F
COVINGTON      CLOUDY    43  36  76 W10       29.82F
FRANKFORT      CLOUDY    45  34  65 W6        29.84F
$$

KYZ054-064>069-076>088-106>120-242000-
SOUTHEAST KENTUCKY

CITY           SKY/WX    TMP DP  RH WIND       PRES   REMARKS
JACKSON        CLOUDY    40  38  93 W8        29.84F FOG     WCI  34
LONDON         CLOUDY    41  36  82 W8        29.86F
SOMERSET       CLOUDY    41  34  75 W5        29.88F
MIDDLESBORO    CLOUDY    43  38  83 NW3       29.86F
MONTICELLO     CLOUDY    42  35  76 VRB7      29.89F
$$





USA.gov is the U.S. government's official web portal to all federal, state and local government web resources and services.